• In Belarus
  • List of Countries
  • For 7 days
  • Water Temperature
  • Weather Map
  • Weather Widgets
  • user-avatar
    Login

    Hourly Weather Cochabamba

    Today, 19 August, Monday

    Time Temperature Precipitation Wind Pressure Humidity
    00:00 +14°C° 0 mm 1 mps 556 mmHg 78%
    01:00 +14°C° 0 mm 1 mps 556 mmHg 78%
    02:00 +14°C° 0 mm 1 mps 555 mmHg 78%
    03:00 +14°C° 0 mm 1 mps 555 mmHg 78%
    04:00 +13°C° 0 mm 1 mps 555 mmHg 79%
    05:00 +13°C° 0 mm 1 mps 555 mmHg 80%
    06:00 +13°C° 0 mm 1 mps 555 mmHg 76%
    07:00 +13°C° 0 mm 1 mps 556 mmHg 73%
    08:00 +14°C° 0 mm 1 mps 556 mmHg 70%
    09:00 +15°C° 0 mm 1 mps 557 mmHg 63%
    10:00 +18°C° 0 mm 1 mps 558 mmHg 56%
    11:00 +19°C° 0 mm 1 mps 558 mmHg 50%
    12:00 +20°C° 0 mm 1 mps 558 mmHg 47%
    13:00 +21°C° 0 mm 1 mps 558 mmHg 44%
    14:00 +23°C° 0 mm 2 mps 557 mmHg 41%
    15:00 +21°C° 0.1 mm 2 mps 557 mmHg 43%
    16:00 +21°C° 0.1 mm 2 mps 556 mmHg 46%
    17:00 +21°C° 0.1 mm 2 mps 556 mmHg 49%
    18:00 +19°C° 0 mm 2 mps 556 mmHg 56%
    19:00 +17°C° 0 mm 2 mps 555 mmHg 63%
    20:00 +16°C° 0 mm 2 mps 555 mmHg 71%
    21:00 +15°C° 0 mm 2 mps 555 mmHg 74%
    22:00 +15°C° 0 mm 2 mps 555 mmHg 76%
    23:00 +14°C° 0 mm 1 mps 556 mmHg 79%

    Tomorrow, 20 August, Tuesday

    Time Temperature Precipitation Wind Pressure Humidity
    00:00 +14°C° 0 mm 1 mps 555 mmHg 80%
    01:00 +14°C° 0 mm 1 mps 555 mmHg 81%
    02:00 +13°C° 0 mm 1 mps 555 mmHg 82%
    03:00 +13°C° 0 mm 1 mps 555 mmHg 82%
    04:00 +12°C° 0 mm 1 mps 554 mmHg 83%
    05:00 +12°C° 0 mm 1 mps 554 mmHg 83%
    06:00 +13°C° 0 mm 1 mps 555 mmHg 79%
    07:00 +13°C° 0 mm 1 mps 556 mmHg 74%
    08:00 +14°C° 0 mm 1 mps 557 mmHg 70%
    09:00 +16°C° 0 mm 1 mps 558 mmHg 64%
    10:00 +18°C° 0 mm 1 mps 558 mmHg 59%
    11:00 +20°C° 0 mm 1 mps 559 mmHg 53%
    12:00 +21°C° 0.1 mm 1 mps 559 mmHg 51%
    13:00 +21°C° 0.1 mm 1 mps 559 mmHg 49%
    14:00 +22°C° 0.1 mm 1 mps 558 mmHg 47%
    15:00 +21°C° 0.1 mm 2 mps 558 mmHg 47%
    16:00 +21°C° 0.1 mm 3 mps 558 mmHg 48%
    17:00 +20°C° 0.1 mm 4 mps 557 mmHg 49%
    18:00 +19°C° 0.2 mm 3 mps 557 mmHg 55%
    19:00 +17°C° 0.2 mm 3 mps 557 mmHg 61%
    20:00 +16°C° 0.2 mm 2 mps 557 mmHg 68%
    21:00 +15°C° 0.2 mm 2 mps 557 mmHg 72%
    22:00 +15°C° 0.2 mm 1 mps 557 mmHg 76%
    23:00 +14°C° 0.2 mm 1 mps 557 mmHg 80%

    Day after tomorrow, 21 August, Wednesday

    Time Temperature Precipitation Wind Pressure Humidity
    00:00 +14°C° 0 mm 1 mps 556 mmHg 81%
    01:00 +13°C° 0 mm 1 mps 556 mmHg 82%
    02:00 +13°C° 0 mm 1 mps 556 mmHg 84%
    03:00 +13°C° 0 mm 1 mps 556 mmHg 84%
    04:00 +12°C° 0 mm 1 mps 555 mmHg 84%
    05:00 +12°C° 0 mm 1 mps 555 mmHg 85%
    06:00 +13°C° 0 mm 1 mps 556 mmHg 80%
    07:00 +13°C° 0 mm 1 mps 557 mmHg 76%
    08:00 +14°C° 0 mm 1 mps 558 mmHg 71%
    09:00 +16°C° 0 mm 1 mps 558 mmHg 65%
    10:00 +18°C° 0 mm 1 mps 559 mmHg 59%
    11:00 +19°C° 0 mm 2 mps 559 mmHg 53%
    12:00 +19°C° 0.1 mm 2 mps 559 mmHg 52%
    13:00 +20°C° 0.1 mm 2 mps 558 mmHg 52%
    14:00 +20°C° 0.1 mm 2 mps 558 mmHg 51%
    15:00 +20°C° 0 mm 3 mps 558 mmHg 51%
    16:00 +20°C° 0 mm 3 mps 557 mmHg 52%
    17:00 +20°C° 0 mm 3 mps 557 mmHg 52%
    18:00 +18°C° 0 mm 3 mps 557 mmHg 59%
    19:00 +17°C° 0 mm 2 mps 556 mmHg 65%
    20:00 +16°C° 0 mm 2 mps 556 mmHg 72%
    21:00 +15°C° 0 mm 2 mps 556 mmHg 74%
    22:00 +15°C° 0 mm 1 mps 556 mmHg 76%
    23:00 +14°C° 0 mm 1 mps 556 mmHg 78%

    22 August, Thursday

    Time Temperature Precipitation Wind Pressure Humidity
    00:00 +14°C° 0 mm 1 mps 556 mmHg 79%
    01:00 +13°C° 0 mm 1 mps 556 mmHg 80%
    02:00 +13°C° 0 mm 1 mps 556 mmHg 80%
    03:00 +13°C° 0 mm 1 mps 555 mmHg 81%
    04:00 +12°C° 0 mm 1 mps 555 mmHg 81%
    05:00 +12°C° 0 mm 1 mps 555 mmHg 81%
    06:00 +13°C° 0 mm 1 mps 556 mmHg 78%
    07:00 +14°C° 0 mm 1 mps 557 mmHg 74%
    08:00 +14°C° 0 mm 1 mps 557 mmHg 71%
    09:00 +16°C° 0 mm 1 mps 558 mmHg 65%
    10:00 +18°C° 0 mm 1 mps 558 mmHg 59%
    11:00 +18°C° 0 mm 2 mps 559 mmHg 53%
    12:00 +19°C° 0 mm 2 mps 558 mmHg 52%
    13:00 +20°C° 0 mm 2 mps 558 mmHg 50%
    14:00 +20°C° 0 mm 3 mps 558 mmHg 48%
    15:00 +20°C° 0 mm 3 mps 557 mmHg 50%
    16:00 +20°C° 0 mm 3 mps 557 mmHg 51%
    17:00 +19°C° 0 mm 4 mps 557 mmHg 53%
    18:00 +18°C° 0 mm 3 mps 557 mmHg 59%
    19:00 +17°C° 0 mm 2 mps 557 mmHg 65%
    20:00 +15°C° 0 mm 2 mps 557 mmHg 71%
    21:00 +15°C° 0 mm 2 mps 557 mmHg 72%
    22:00 +15°C° 0 mm 1 mps 557 mmHg 73%
    23:00 +14°C° 0 mm 1 mps 557 mmHg 74%

    23 August, Friday

    Time Temperature Precipitation Wind Pressure Humidity
    00:00 +14°C° 0.1 mm 1 mps 557 mmHg 75%
    01:00 +13°C° 0.1 mm 1 mps 557 mmHg 76%
    02:00 +13°C° 0.1 mm 1 mps 556 mmHg 77%
    03:00 +12°C° 0.1 mm 1 mps 556 mmHg 78%
    04:00 +12°C° 0.1 mm 1 mps 556 mmHg 78%
    05:00 +11°C° 0.1 mm 1 mps 556 mmHg 79%
    06:00 +12°C° 0 mm 1 mps 556 mmHg 75%
    07:00 +13°C° 0 mm 1 mps 557 mmHg 71%
    08:00 +13°C° 0 mm 1 mps 558 mmHg 66%
    09:00 +15°C° 0 mm 1 mps 559 mmHg 58%
    10:00 +16°C° 0 mm 2 mps 559 mmHg 50%
    11:00 +17°C° 0 mm 2 mps 560 mmHg 42%
    12:00 +18°C° 0 mm 2 mps 559 mmHg 40%
    13:00 +19°C° 0 mm 2 mps 559 mmHg 38%
    14:00 +20°C° 0 mm 2 mps 559 mmHg 36%
    15:00 +19°C° 0 mm 3 mps 558 mmHg 40%
    16:00 +19°C° 0 mm 3 mps 557 mmHg 43%
    17:00 +18°C° 0 mm 4 mps 557 mmHg 46%
    18:00 +17°C° 0 mm 3 mps 557 mmHg 52%
    19:00 +16°C° 0 mm 3 mps 556 mmHg 57%
    20:00 +14°C° 0 mm 2 mps 556 mmHg 62%
    21:00 +14°C° 0 mm 2 mps 556 mmHg 64%
    22:00 +13°C° 0 mm 2 mps 556 mmHg 66%
    23:00 +13°C° 0 mm 1 mps 556 mmHg 69%

    24 August, Saturday

    Time Temperature Precipitation Wind Pressure Humidity
    00:00 +13°C° 0 mm 1 mps 556 mmHg 70%
    01:00 +12°C° 0 mm 1 mps 555 mmHg 71%
    02:00 +12°C° 0 mm 1 mps 555 mmHg 73%
    03:00 +11°C° 0 mm 1 mps 555 mmHg 74%
    04:00 +11°C° 0 mm 1 mps 554 mmHg 75%
    05:00 +10°C° 0 mm 1 mps 554 mmHg 76%
    06:00 +11°C° 0 mm 1 mps 554 mmHg 71%
    07:00 +12°C° 0 mm 1 mps 555 mmHg 66%
    08:00 +13°C° 0 mm 1 mps 556 mmHg 61%
    09:00 +14°C° 0 mm 2 mps 557 mmHg 54%
    10:00 +16°C° 0 mm 2 mps 557 mmHg 48%
    11:00 +18°C° 0 mm 2 mps 558 mmHg 41%
    12:00 +19°C° 0 mm 2 mps 557 mmHg 41%
    13:00 +19°C° 0 mm 3 mps 557 mmHg 42%
    14:00 +20°C° 0 mm 3 mps 556 mmHg 42%
    15:00 +19°C° 0 mm 4 mps 555 mmHg 45%
    16:00 +19°C° 0 mm 4 mps 555 mmHg 47%
    17:00 +17°C° 0 mm 5 mps 554 mmHg 50%
    18:00 +17°C° 0 mm 4 mps 554 mmHg 55%
    19:00 +16°C° 0 mm 3 mps 554 mmHg 60%
    20:00 +14°C° 0 mm 3 mps 554 mmHg 66%
    21:00 +14°C° 0 mm 2 mps 554 mmHg 66%
    22:00 +14°C° 0 mm 1 mps 554 mmHg 67%
    23:00 +14°C° 0 mm 1 mps 554 mmHg 68%
    Show more